La Junta, CO

8:34 PM MST on December 05, 2016 (GMT -0700)
La Junta Municipal

Weather History for KLHX - January, 2013

Change the Weather History Date:

Wednesday, January 30, 2013

  Actual Average Record
Temperature  
Mean Temperature 27 °F 32 °F  
Max Temperature 43 °F 46 °F 78 °F (1986)
Min Temperature 10 °F 18 °F -15 °F (1949)
Degree Days  
Heating Degree Days 38 33  
Month to date heating degree days 973 1021  
Since 1 July heating degree days 2915 3224  
Cooling Degree Days 0 0  
Month to date cooling degree days 0 0  
Year to date cooling degree days 0 0  
Moisture  
Dew Point 12 °F    
Average Humidity 54    
Maximum Humidity 80    
Minimum Humidity 27    
Precipitation  
Precipitation 0.00 in 0.01 in 0.29 in (1999)
Month to date precipitation 0.02 0.28  
Year to date precipitation 0.02 0.28  
Sea Level Pressure  
Sea Level Pressure 30.00 in    
Wind  
Wind Speed 9 mph (WSW)    
Max Wind Speed 17 mph    
Max Gust Speed 20 mph    
Visibility 10 miles    
Events      
T = Trace of Precipitation, MM = Missing Value Source: NWS Daily Summary

Daily Weather History Graph

Daily Weather History Graph

Search for Another Location

Airport or City:

Trip Planner

Search our weather history database for the weather conditions in past years. The results will help you decide how hot, cold, wet, or windy it might be!

Date:

Astronomy

Jan. 30, 2013 Rise Set
Actual Time 7:00 AM MST 5:15 PM MST
Civil Twilight 6:32 AM MST 5:43 PM MST
Nautical Twilight 6:00 AM MST 6:14 PM MST
Astronomical Twilight 5:29 AM MST 6:45 PM MST
Moon 9:11 PM MST (1/30) 8:33 AM MST (1/30)
Length of Visible Light 11h 10m
Length of Day
10h 15m
Waning Gibbous, 87% of the Moon is Illuminated
Jan 30
Waning Gibbous
Feb 3
Last Quarter
Feb 10
New
Feb 17
First Quarter
Feb 25
Full

Hourly Weather History & Observations

Time (MST) Temp. Windchill Dew Point Humidity Pressure Visibility Wind Dir Wind Speed Gust Speed Precip Events Conditions
12:53 AM 18.0 °F 3.6 °F 10.0 °F 71% 30.01 in 10.0 mi WNW 15.0 mph - N/A   Clear
1:53 AM 14.0 °F -1.4 °F 8.1 °F 77% 30.03 in 10.0 mi West 15.0 mph - N/A   Clear
2:53 AM 15.1 °F 1.8 °F 8.1 °F 74% 30.03 in 10.0 mi West 11.5 mph - N/A   Clear
3:53 AM 15.1 °F 1.8 °F 8.1 °F 74% 30.03 in 10.0 mi West 11.5 mph - N/A   Clear
4:53 AM 18.0 °F 6.9 °F 9.0 °F 68% 30.04 in 10.0 mi WSW 9.2 mph - N/A   Overcast
5:53 AM 15.1 °F 1.8 °F 7.0 °F 70% 30.09 in 10.0 mi West 11.5 mph - N/A   Clear
6:53 AM 10.9 °F -3.4 °F 3.9 °F 73% 30.10 in 10.0 mi WNW 11.5 mph - N/A   Clear
7:53 AM 14.0 °F 3.9 °F 6.1 °F 71% 30.10 in 10.0 mi SW 6.9 mph - N/A   Clear
8:53 AM 19.9 °F 10.1 °F 10.0 °F 65% 30.07 in 10.0 mi SW 8.1 mph - N/A   Clear
9:53 AM 21.9 °F 9.8 °F 10.9 °F 63% 30.05 in 10.0 mi SW 12.7 mph - N/A   Clear
10:53 AM 26.1 °F 16.2 °F 12.0 °F 55% 30.02 in 10.0 mi WSW 10.4 mph - N/A   Clear
11:53 AM 30.9 °F 21.2 °F 15.1 °F 52% 29.96 in 10.0 mi SW 12.7 mph - N/A   Clear
12:53 PM 36.0 °F 28.0 °F 12.9 °F 39% 29.92 in 10.0 mi SSW 11.5 mph - N/A   Clear
1:53 PM 39.9 °F 33.9 °F 14.0 °F 35% 29.91 in 10.0 mi West 9.2 mph - N/A   Clear
2:53 PM 42.1 °F 40.2 °F 10.0 °F 27% 29.91 in 10.0 mi West 3.5 mph - N/A   Clear
3:53 PM 42.1 °F 38.4 °F 12.0 °F 29% 29.91 in 10.0 mi SSW 5.8 mph - N/A   Scattered Clouds
4:53 PM 39.9 °F 36.7 °F 14.0 °F 35% 29.92 in 10.0 mi SSW 4.6 mph - N/A   Clear
5:53 PM 37.9 °F 33.5 °F 14.0 °F 38% 29.94 in 10.0 mi South 5.8 mph - N/A   Clear
6:53 PM 35.1 °F 31.0 °F 12.9 °F 40% 29.98 in 10.0 mi SSW 4.6 mph - N/A   Clear
7:53 PM 30.9 °F 23.5 °F 15.1 °F 52% 30.00 in 10.0 mi SSW 8.1 mph - N/A   Clear
8:53 PM 30.0 °F 21.1 °F 15.1 °F 54% 29.99 in 10.0 mi SW 10.4 mph - N/A   Clear
9:53 PM 30.0 °F 19.1 °F 17.1 °F 59% 29.98 in 10.0 mi SW 15.0 mph - N/A   Clear
10:53 PM 26.1 °F - 17.1 °F 69% 30.00 in 10.0 mi Calm Calm - N/A   Clear
11:53 PM 26.1 °F 15.6 °F 16.0 °F 66% 29.97 in 10.0 mi SW 11.5 mph - N/A   Clear